Regional Weather Roundup
Issued by NWS

Home | Current Version | Previous Version | Graphics & Text | Print | Product List | Glossary On
Versions: 1 2 3 4 5 6 7 8 9 10 11 12 13 14 15 16 17 18 19 20 21 22 23 24 25 26 27 28 29 30 31 32 33 34 35 36 37 38 39 40 41 42 43 44 45 46 47 48 49 50
407
ASUS44 KLIX 312301
RWRLA
LOUISIANA WEATHER ROUNDUP
NATIONAL WEATHER SERVICE NEW ORLEANS LA
600 PM CDT FRI OCT 31 2014

NOTE: "FAIR" INDICATES FEW OR NO CLOUDS BELOW 12,000 FEET WITH NO
      SIGNIFICANT WEATHER AND/OR OBSTRUCTIONS TO VISIBILITY.
      SKY/WX - SKY CONDITION AND SIGNIFICANT WEATHER.
      TMP - AIR TEMPERATURE.    DP   - DEWPOINT TEMPERATURE.
      RH  - RELATIVE HUMIDITY.  PRES - PRESSURE.
      HX  - HEAT INDEX.         WCI  - WIND CHILL INDEX.

*  THESE STATIONS ARE NOT NWS OR FAA STATIONS AND ARE NOT UNDER
   NWS QUALITY CONTROL.

LAZ040-048-061>063-065-066-069-010000-
SOUTHEAST LOUISIANA

CITY           SKY/WX    TMP DP  RH WIND       PRES   REMARKS
N.O. AUDUBON     N/A     70 N/A N/A MISG        N/A
N.O. INTL ARPT PTCLDY    71  45  39 N17G29    30.05R
N.O. LAKEFRONT CLEAR     72  50  45 N26       30.05R
N.O. DOWNTOWN* FAIR      72  45  37 N7G18     30.05R
SLIDELL        CLEAR     69  45  41 N9        30.03R
BATON ROUGE    PTCLDY    68  47  46 NW13G18   30.10R
BOOTHVILLE     CLEAR     71  47  42 NW17G25   30.01R
BELLE CHASSE   PTCLDY    71  44  37 N8        30.03R
BOGALUSA*        N/A     69  44  40 N12G21    30.07R
NEW ROADS*     FAIR      66  47  50 NW9       30.12R
GONZALES*      FAIR      68  47  47 NW9G17    30.08R
HAMMOND*       NOT AVBL
HOUMA*         NOT AVBL
PORT FOURCHON* NOT AVBL

$$

LAZ041-044-053-054-010000-
SOUTHWEST LOUISIANA

CITY           SKY/WX    TMP DP  RH WIND       PRES   REMARKS
LAKE CHARLES   CLEAR     70  44  39 N13G23    30.13R
LAFAYETTE      CLEAR     69  46  43 N14       30.12R
PATTERSON      CLEAR     70  46  43 N10G18    30.10R
SALT POINT       N/A     70  47  43 N6        30.07R
NEW IBERIA     CLEAR     70  46  42 N14       30.11R
CHENAULT AIRPK NOT AVBL

$$

LAZ027-028-010000-
CENTRAL LOUISIANA

CITY           SKY/WX    TMP DP  RH WIND       PRES   REMARKS
FORT POLK      CLEAR     66  46  48 N10       30.16R
ALEXANDRIA INT PTCLDY    67  46  47 N10       30.15R
ALEXANDRIA     PTCLDY    66  47  50 N7        30.16R

$$

LAZ001-002-010000-
NORTHWEST LOUISIANA

CITY           SKY/WX    TMP DP  RH WIND       PRES   REMARKS
SHREVEPORT     PTCLDY    65  44  46 N12       30.21R
BARKSDALE AFB  PTCLDY    65  42  42 N12       30.22R
DTN SHREVEPORT PTCLDY    65  41  41 N8G17     30.22R

$$

LAZ014-016-010000-
NORTHEAST LOUISIANA

CITY           SKY/WX    TMP DP  RH WIND       PRES   REMARKS
MONROE         PTCLDY    63  43  48 N15       30.19R
TALLULAH       CLEAR     61  43  51 N12G20    30.16R

$$




USA.gov is the U.S. government's official web portal to all federal, state and local government web resources and services.